GW1299 Weather Reports


Display with metric or nautical units.
time (UTC)temp
F
wind
direction
speed
MPH
gust
MPH
rain 1hr
in
rain 24hr
in
rain mn
in
humidity
%
barometer
mb
20260504081546 50 358 0.0 2.0 0.00 0.00 0.00 65 1015.9
20260504050018 44 106 0.0 0.0 0.00 0.00 0.00 74 1016.0
20260504044518 43 106 0.0 0.0 0.00 0.00 0.00 75 1016.0
20260504043016 43 106 0.0 0.0 0.00 0.00 0.00 74 1016.1
20260504041511 44 106 0.0 0.0 0.00 0.00 0.00 73 1016.1
20260504040008 43 106 0.0 0.0 0.00 0.00 0.00 73 1016.1
20260504034510 44 106 0.0 0.0 0.00 0.00 0.00 72 1015.9
20260504033007 44 106 0.0 0.0 0.00 0.00 0.00 69 1015.8
20260504031511 45 106 0.0 2.0 0.00 0.00 0.00 67 1015.7
20260504030007 45 317 0.0 2.0 0.00 0.00 0.00 69 1015.4
20260504024506 45 317 0.0 2.0 0.00 0.00 0.00 66 1015.5
20260504023008 46 317 0.0 2.0 0.00 0.00 0.00 66 1015.5
20260504021509 46 317 0.0 1.0 0.00 0.00 0.00 66 1015.4
20260504020004 47 317 0.0 0.0 0.00 0.00 0.00 62 1015.3
20260504014504 48 317 0.0 1.0 0.00 0.00 0.00 61 1015.3
20260504013005 49 317 0.0 0.0 0.00 0.00 0.00 59 1015.3
20260504011502 49 317 0.0 0.0 0.00 0.00 0.00 58 1015.1
20260504010003 51 317 0.0 0.0 0.00 0.00 0.00 54 1015.0
20260504004505 52 317 0.0 2.0 0.00 0.00 0.00 51 1015.0
20260504003001 54 317 0.0 2.0 0.00 0.00 0.00 45 1014.7
20260504001503 56 317 0.0 2.0 0.00 0.00 0.00 41 1014.5
20260504000105 58 317 0.0 2.0 0.00 0.00 0.00 36 1014.5
20260503234600 59 318 0.0 2.0 0.00 0.00 0.00 34 1014.4
20260503233109 59 318 0.0 2.0 0.00 0.00 0.00 34 1014.2
20260503231559 61 277 2.0 8.0 0.00 0.00 0.00 31 1014.2
20260503230112 62 3 1.0 7.0 0.00 0.00 0.00 29 1014.1
20260503224602 62 37 0.0 9.0 0.00 0.00 0.00 30 1014.2
20260503223112 62 286 5.0 10.0 0.00 0.00 0.00 28 1014.3
20260503221556 62 328 0.0 10.0 0.00 0.00 0.00 31 1014.3
20260503220055 62 325 0.0 10.0 0.00 0.00 0.00 31 1014.4
20260503214557 61 280 0.0 9.0 0.00 0.00 0.00 31 1014.3
20260503213052 61 284 1.0 8.0 0.00 0.00 0.00 30 1014.2
20260503211550 62 261 3.0 10.0 0.00 0.00 0.00 32 1014.2
20260503210049 61 37 0.0 12.0 0.00 0.00 0.00 33 1014.3
20260503204548 61 307 2.0 11.0 0.00 0.00 0.00 32 1014.4
20260503203049 61 323 3.0 8.0 0.00 0.00 0.00 31 1014.5
20260503201550 61 303 5.0 14.0 0.00 0.00 0.00 31 1014.7
20260503200047 61 327 7.0 15.0 0.00 0.00 0.00 31 1014.9
20260503194556 60 292 4.0 12.0 0.00 0.00 0.00 35 1015.1
20260503193044 60 223 7.0 17.0 0.00 0.00 0.00 32 1015.2
20260503191547 60 301 2.0 13.0 0.00 0.00 0.00 33 1015.4
20260503190046 59 336 3.0 16.0 0.00 0.00 0.00 36 1015.7
20260503184543 60 223 4.0 10.0 0.00 0.00 0.00 37 1015.7
20260503183045 59 309 4.0 19.0 0.00 0.00 0.00 35 1015.8
20260503181556 59 353 5.0 16.0 0.00 0.00 0.00 34 1016.1
20260503180047 59 289 3.0 16.0 0.00 0.00 0.00 35 1016.1
20260503174538 59 316 2.0 11.0 0.00 0.00 0.00 37 1016.2
20260503173040 57 67 2.0 14.0 0.00 0.00 0.00 35 1016.2
20260503171534 58 320 5.0 14.0 0.00 0.00 0.00 35 1016.3